This is the latest recevied weather packets stored in our database for station/object DL1SEW-6. If no packets are shown the sender has not sent any weather packets the latest 10 day(s).
| Time | Temp. | Humidity | Pressure | Rain* | Wind** | Luminosity | Snow |
|---|---|---|---|---|---|---|---|
| 1777819191 | 22.78° C | 41% | 1012.5 hPa | 0 mm | - | 390 W/m² | - |
| 1777818292 | 22.22° C | 39% | 1012.8 hPa | 0 mm | - | 203 W/m² | - |
| 1777817391 | 22.78° C | 38% | 1012.9 hPa | 0 mm | - | 125 W/m² | - |
| 1777816492 | 23.33° C | 37% | 1013 hPa | 0 mm | - | 182 W/m² | - |
| 1777815593 | 23.89° C | 37% | 1013.2 hPa | 0 mm | - | 262 W/m² | - |
| 1777814691 | 23.89° C | 36% | 1013.2 hPa | 0 mm | - | 663 W/m² | - |
| 1777813791 | 23.89° C | 37% | 1013.6 hPa | 0 mm | - | 443 W/m² | - |
| 1777812892 | 24.44° C | 36% | 1013.8 hPa | 0 mm | - | 411 W/m² | - |
| 1777811990 | 24.44° C | 37% | 1013.9 hPa | 0 mm | - | 818 W/m² | - |
| 1777811095 | 23.89° C | 35% | 1014 hPa | 0 mm | - | 920 W/m² | - |
| 1777810195 | 23.89° C | 36% | 1014.2 hPa | 0 mm | - | 792 W/m² | - |
| 1777809295 | 23.33° C | 38% | 1014.2 hPa | 0 mm | - | 909 W/m² | - |
| 1777808395 | 23.33° C | 38% | 1014.3 hPa | 0 mm | - | 829 W/m² | - |
| 1777807496 | 23.33° C | 39% | 1014.5 hPa | 0 mm | - | 797 W/m² | - |
| 1777806595 | 23.33° C | 40% | 1014.6 hPa | 0 mm | - | 789 W/m² | - |
| 1777805694 | 23.33° C | 35% | 1014.9 hPa | 0 mm | - | 661 W/m² | - |
| 1777804795 | 23.33° C | 35% | 1015 hPa | 0 mm | - | 741 W/m² | - |
| 1777803897 | 23.33° C | 36% | 1015.2 hPa | 0 mm | - | 805 W/m² | - |
| 1777802993 | 22.22° C | 36% | 1015.1 hPa | 0 mm | - | 833 W/m² | - |
| 1777802093 | 22.22° C | 37% | 1015.3 hPa | 0 mm | - | 673 W/m² | - |
| 1777801193 | 22.22° C | 37% | 1015.5 hPa | 0 mm | - | 459 W/m² | - |
| 1777800293 | 22.22° C | 38% | 1015.7 hPa | 0 mm | - | 656 W/m² | - |
| 1777799394 | 22.22° C | 40% | 1015.7 hPa | 0 mm | - | 803 W/m² | - |
| 1777798492 | 21.11° C | 39% | 1015.6 hPa | 0 mm | - | 704 W/m² | - |
| 1777797593 | 20.56° C | 42% | 1015.7 hPa | 0 mm | - | 677 W/m² | - |
* Rain latest hour (hover to see other rain measurements)
** Current wind speed in m/s (hover to see current wind gust speed)